Regional Weather Roundup
Issued by NWS

Home | Current Version | Previous Version | Text Only | Print | Product List | Glossary On
Versions: 1 2 3 4 5 6 7 8 9 10 11 12 13 14 15 16 17 18 19 20 21 22 23 24 25 26 27 28 29 30 31 32 33 34 35 36 37 38 39 40 41 42 43 44 45 46 47 48 49 50
000
ASUS44 KLIX 281911
RWRLA
LOUISIANA WEATHER ROUNDUP
NATIONAL WEATHER SERVICE NEW ORLEANS LA
200 PM CDT FRI AUG 28 2015

NOTE: "FAIR" INDICATES FEW OR NO CLOUDS BELOW 12,000 FEET WITH NO
      SIGNIFICANT WEATHER AND/OR OBSTRUCTIONS TO VISIBILITY.
      SKY/WX - SKY CONDITION AND SIGNIFICANT WEATHER.
      TMP - AIR TEMPERATURE.    DP   - DEWPOINT TEMPERATURE.
      RH  - RELATIVE HUMIDITY.  PRES - PRESSURE.
      HX  - HEAT INDEX.         WCI  - WIND CHILL INDEX.

*  THESE STATIONS ARE NOT NWS OR FAA STATIONS AND ARE NOT UNDER
   NWS QUALITY CONTROL.

LAZ040-048-061>063-065-066-069-282000-
SOUTHEAST LOUISIANA

CITY           SKY/WX    TMP DP  RH WIND       PRES   REMARKS
N.O. AUDUBON     N/A     87  69  55 MISG        N/A
N.O. INTL ARPT MOSUNNY   89  64  43 NE10      29.98F
N.O. LAKEFRONT MOSUNNY   87  67  51 N6        29.99F
N.O. DOWNTOWN* MOCLDY    88  66  48 CALM      29.99F
RESERVE*       FAIR      90  65  43 NE8       29.99F
SLIDELL        PTSUNNY   89  68  49 NE5       29.97F
BATON ROUGE    SUNNY     89  61  38 CALM      30.00F
BOOTHVILLE     SUNNY     88  67  49 VRB6      29.98F
BELLE CHASSE   MOSUNNY   89  66  46 E12       29.98F
BOGALUSA*      NOT AVBL
GALLIANO*      CLEAR     90  65  43 N3        29.98F
NEW ROADS*     FAIR      86  59  39 CALM      30.01F
GONZALES*      FAIR      89  63  42 NE6       29.98F
HAMMOND*       MOSUNNY   93  57  29 CALM      30.00F
HOUMA*         NOT AVBL
PORT FOURCHON* CLEAR     86  68  54 N8        29.99F

$$

LAZ041-044-053-054-282000-
SOUTHWEST LOUISIANA

CITY           SKY/WX    TMP DP  RH WIND       PRES   REMARKS
LAKE CHARLES   SUNNY     89  58  34 NE6       29.99F
LAFAYETTE      SUNNY     89  60  37 VRB3      30.00F
PATTERSON      SUNNY     88  63  42 NW5       30.01F
SALT POINT       N/A     86  64  47 VRB5      29.98F
NEW IBERIA     SUNNY     90  61  37 VRB3      30.00F
CHENAULT AIRPK NOT AVBL

$$

LAZ027-028-282000-
CENTRAL LOUISIANA

CITY           SKY/WX    TMP DP  RH WIND       PRES   REMARKS
FORT POLK      SUNNY     88  61  40 E7        29.99F
ALEXANDRIA INT SUNNY     89  56  32 NE3       29.99F
ALEXANDRIA     SUNNY     92  58  31 VRB5      30.00F

$$

LAZ001-002-282000-
NORTHWEST LOUISIANA

CITY           SKY/WX    TMP DP  RH WIND       PRES   REMARKS
SHREVEPORT     SUNNY     88  58  36 CALM      30.00F
BARKSDALE AFB  SUNNY     87  57  35 CALM      30.01F
DTN SHREVEPORT SUNNY     85  58  39 VRB3      30.01F

$$

LAZ014-016-282000-
NORTHEAST LOUISIANA

CITY           SKY/WX    TMP DP  RH WIND       PRES   REMARKS
MONROE         SUNNY     88  58  36 CALM      30.01F
TALLULAH       SUNNY     88  56  33 NE6       30.02F

$$



USA.gov is the U.S. government's official web portal to all federal, state and local government web resources and services.